This is the latest recevied weather packets stored in our database for station/object KE6LRO. If no packets are shown the sender has not sent any weather packets the latest 10 day(s).
| Time | Temp. | Humidity | Pressure | Rain* | Wind** | Luminosity | Snow |
|---|---|---|---|---|---|---|---|
| 1777663370 | 20.56° C | 30% | 1022.6 hPa | 0 mm | - | 758 W/m² | - |
| 1777663067 | 20° C | 30% | 1022.6 hPa | 0 mm | - | 758 W/m² | - |
| 1777662765 | 20° C | 31% | 1022.5 hPa | 0 mm | - | 757 W/m² | - |
| 1777662462 | 20° C | 32% | 1022.7 hPa | 0 mm | - | 757 W/m² | - |
| 1777662157 | 20° C | 31% | 1023 hPa | 0 mm | - | 755 W/m² | - |
| 1777661853 | 19.44° C | 31% | 1023 hPa | 0 mm | - | 754 W/m² | - |
| 1777661549 | 19.44° C | 34% | 1023.1 hPa | 0 mm | - | 754 W/m² | - |
| 1777661245 | 18.89° C | 33% | 1023.2 hPa | 0 mm | - | 752 W/m² | - |
| 1777660940 | 18.33° C | 34% | 1023.4 hPa | 0 mm | - | 750 W/m² | - |
| 1777660637 | 17.78° C | 33% | 1023.3 hPa | 0 mm | - | 747 W/m² | - |
| 1777660334 | 17.78° C | 37% | 1023.4 hPa | 0 mm | - | 745 W/m² | - |
| 1777660030 | 17.78° C | 37% | 1023.6 hPa | 0 mm | - | 740 W/m² | - |
| 1777659727 | 17.78° C | 38% | 1023.6 hPa | 0 mm | - | 736 W/m² | - |
| 1777659424 | 17.78° C | 39% | 1023.6 hPa | 0 mm | - | 732 W/m² | - |
| 1777659121 | 17.78° C | 39% | 1023.6 hPa | 0 mm | - | 728 W/m² | - |
| 1777658819 | 17.22° C | 40% | 1024 hPa | 0 mm | - | 722 W/m² | - |
| 1777658514 | 16.67° C | 39% | 1024 hPa | 0 mm | - | 719 W/m² | - |
| 1777658211 | 17.22° C | 40% | 1024.1 hPa | 0 mm | - | 713 W/m² | - |
| 1777657909 | 17.22° C | 38% | 1024.3 hPa | 0 mm | - | 706 W/m² | - |
| 1777657605 | 16.67° C | 40% | 1024.3 hPa | 0 mm | - | 702 W/m² | - |
| 1777657303 | 16.67° C | 41% | 1024.3 hPa | 0 mm | - | 695 W/m² | - |
| 1777657000 | 16.11° C | 43% | 1024.4 hPa | 0 mm | - | 689 W/m² | - |
| 1777656697 | 15.56° C | 42% | 1024.3 hPa | 0 mm | - | 682 W/m² | - |
| 1777656393 | 15.56° C | 41% | 1024.4 hPa | 0 mm | - | 674 W/m² | - |
| 1777656088 | 15.56° C | 43% | 1024.5 hPa | 0 mm | - | 665 W/m² | - |
* Rain latest hour (hover to see other rain measurements)
** Current wind speed in m/s (hover to see current wind gust speed)